This is the latest recevied weather packets stored in our database for station/object OH2MUI. If no packets are shown the sender has not sent any weather packets the latest 10 day(s).
| Time | Temp. | Humidity | Pressure | Rain* | Wind** | Luminosity | Snow |
|---|---|---|---|---|---|---|---|
| 1777481700 | 7.78° C | 47% | 1025.3 hPa | 0 mm | - | - | - |
| 1777481689 | 7.78° C | 47% | 1025.3 hPa | 0 mm | - | - | - |
| 1777480703 | 8.33° C | - | - | 0 mm | - | - | - |
| 1777480699 | 8.33° C | 47% | 1025.3 hPa | 0 mm | - | - | - |
| 1777479700 | 8.89° C | 46% | 1025.1 hPa | 0 mm | - | - | - |
| 1777479694 | 8.89° C | 46% | 1025.1 hPa | 0 mm | - | - | - |
| 1777478514 | 8.89° C | - | - | 0 mm | - | - | - |
| 1777478509 | 8.89° C | 45% | 1025.2 hPa | 0 mm | - | - | - |
| 1777477449 | 8.89° C | 45% | 1025.2 hPa | 0 mm | - | - | - |
| 1777476449 | 9.44° C | 45% | 1025.2 hPa | 0 mm | - | - | - |
| 1777475394 | 9.44° C | 44% | 1025.2 hPa | 0 mm | - | - | - |
| 1777474214 | 9.44° C | 43% | 1025.2 hPa | 0 mm | - | - | - |
| 1777473032 | 9.44° C | 41% | 1025.3 hPa | 0 mm | - | - | - |
| 1777471892 | 9.44° C | 43% | 1025.4 hPa | 0 mm | - | - | - |
| 1777470704 | 8.89° C | 42% | 1025.5 hPa | 0 mm | - | - | - |
| 1777469652 | 8.89° C | 43% | 1025.7 hPa | 0 mm | - | - | - |
| 1777468539 | - | - | - | - | - | - | - |
| 1777468534 | 8.89° C | 42% | 1025.7 hPa | 0 mm | - | - | - |
| 1777467549 | 8.89° C | 44% | - | 0 mm | - | - | - |
| 1777467545 | 8.89° C | 44% | 1025.8 hPa | 0 mm | - | - | - |
| 1777466527 | 8.33° C | 42% | 1025.9 hPa | 0 mm | - | - | - |
| 1777466524 | 8.33° C | 42% | 1025.9 hPa | 0 mm | - | - | - |
| 1777465519 | 8.33° C | 45% | 1026.1 hPa | 0 mm | - | - | - |
| 1777464504 | 8.33° C | 44% | 1026.3 hPa | 0 mm | - | - | - |
| 1777463407 | 8.33° C | 44% | 1026.3 hPa | 0 mm | - | - | - |
* Rain latest hour (hover to see other rain measurements)
** Current wind speed in m/s (hover to see current wind gust speed)